Birchwood, AK

3:46 AM AKDT on August 19, 2017 (GMT -0800)
Birchwood

Weather History for PABV - May, 2013

Change the Weather History Date:

Sunday, May 12, 2013

  Actual Average Record
Temperature  
Mean Temperature 46 °F -  
Max Temperature 51 °F 52 °F 68 °F (2016)
Min Temperature 41 °F 35 °F 28 °F (1992)
Degree Days  
Heating Degree Days 19    
Moisture  
Dew Point 42 °F    
Average Humidity 85    
Maximum Humidity 100    
Minimum Humidity 71    
Precipitation  
Precipitation 0.00 in - - ()
Sea Level Pressure  
Sea Level Pressure 29.52 in    
Wind  
Wind Speed 0 mph (SE)    
Max Wind Speed 8 mph    
Max Gust Speed -    
Visibility 10 miles    
Events      
Averages and records for this station are not official NWS values.
T = Trace of Precipitation, MM = Missing Value Source: NWS Daily Summary

Daily Weather History Graph

Daily Weather History Graph

Search for Another Location

Airport or City:

Trip Planner

Search our weather history database for the weather conditions in past years. The results will help you decide how hot, cold, wet, or windy it might be!

Date:

Astronomy

May. 12, 2013 Rise Set
Actual Time 5:15 AM AKDT 10:34 PM AKDT
Civil Twilight 4:07 AM AKDT 11:44 PM AKDT
Nautical Twilight 2:26 AM AKDT 1:21 AM AKDT
Astronomical Twilight Sun does not set Sun does not set
Moon 7:08 AM AKDT (5/12) 12:31 AM AKDT (5/12)
Length of Visible Light 19h 36m
Length of Day
17h 18m
Waxing Crescent, 7% of the Moon is Illuminated
May 12
Waxing Crescent
May 17
First Quarter
May 24
Full
May 31
Last Quarter
Jun 8
New

Hourly Weather History & Observations

Time (AKDT) Temp. Windchill Dew Point Humidity Pressure Visibility Wind Dir Wind Speed Gust Speed Precip Events Conditions
12:16 AM 46.4 °F - 39.2 °F 76% 29.58 in 10.0 mi Calm Calm - N/A   Overcast
12:36 AM 46.4 °F - 41.0 °F 81% 29.58 in 10.0 mi Calm Calm - N/A   Overcast
12:56 AM 48.2 °F - 42.8 °F 82% 29.58 in 10.0 mi Calm Calm - N/A   Overcast
1:36 AM 46.4 °F - 41.0 °F 81% 29.57 in 10.0 mi Calm Calm - N/A   Overcast
1:56 AM 46.4 °F - 41.0 °F 81% 29.57 in 10.0 mi Calm Calm - N/A   Overcast
2:16 AM 48.2 °F - 41.0 °F 76% 29.57 in 10.0 mi Calm Calm - N/A   Overcast
2:36 AM 46.4 °F - 41.0 °F 81% 29.57 in 10.0 mi Calm Calm - N/A   Overcast
2:56 AM 46.4 °F - 41.0 °F 81% 29.56 in 10.0 mi Calm Calm - N/A   Overcast
3:16 AM 46.4 °F - 42.8 °F 87% 29.56 in 10.0 mi Calm Calm - N/A   Overcast
3:36 AM 46.4 °F - 42.8 °F 87% 29.55 in 10.0 mi Calm Calm - N/A   Overcast
3:56 AM 46.4 °F - 42.8 °F 87% 29.55 in 10.0 mi Calm Calm - N/A   Overcast
4:16 AM 44.6 °F - 42.8 °F 93% 29.55 in 10.0 mi Calm Calm - N/A   Overcast
4:36 AM 44.6 °F - 42.8 °F 93% 29.54 in 10.0 mi Calm Calm - N/A   Overcast
4:56 AM 44.6 °F - 42.8 °F 93% 29.54 in 10.0 mi Calm Calm - N/A   Overcast
5:16 AM 44.6 °F - 42.8 °F 93% 29.54 in 10.0 mi Calm Calm - N/A   Overcast
5:36 AM 44.6 °F - 42.8 °F 93% 29.54 in 10.0 mi Calm Calm - N/A   Mostly Cloudy
5:56 AM 44.6 °F - 42.8 °F 93% 29.53 in 10.0 mi Calm Calm - N/A   Scattered Clouds
6:16 AM 42.8 °F - 42.8 °F 100% 29.53 in 10.0 mi Calm Calm - N/A   Mostly Cloudy
6:36 AM 42.8 °F - 41.0 °F 93% 29.53 in 10.0 mi Calm Calm - N/A   Mostly Cloudy
6:56 AM 44.6 °F - 42.8 °F 93% 29.54 in 10.0 mi Calm Calm - N/A   Mostly Cloudy
7:16 AM 44.6 °F - 42.8 °F 93% 29.53 in 10.0 mi Calm Calm - N/A   Overcast
7:36 AM 44.6 °F - 42.8 °F 93% 29.53 in 10.0 mi Calm Calm - N/A   Overcast
7:56 AM 41.0 °F - 41.0 °F 100% 29.53 in 10.0 mi Calm Calm - N/A   Overcast
8:16 AM 41.0 °F - 41.0 °F 100% 29.53 in 10.0 mi Calm Calm - N/A   Mostly Cloudy
8:36 AM 42.8 °F - 41.0 °F 93% 29.53 in 10.0 mi Calm Calm - N/A   Scattered Clouds
8:56 AM 42.8 °F - 42.8 °F 100% 29.53 in 10.0 mi Calm Calm - N/A   Mostly Cloudy
9:16 AM 42.8 °F - 42.8 °F 100% 29.53 in 10.0 mi Calm Calm - N/A   Overcast
9:36 AM 44.6 °F - 42.8 °F 93% 29.53 in 10.0 mi Calm Calm - N/A   Overcast
9:56 AM 44.6 °F - 41.0 °F 87% 29.53 in 10.0 mi Calm Calm - N/A   Overcast
10:16 AM 44.6 °F - 42.8 °F 93% 29.53 in 10.0 mi Calm Calm - N/A   Overcast
10:36 AM 46.4 °F - 39.2 °F 76% 29.54 in 10.0 mi Calm Calm - N/A   Overcast
10:56 AM 46.4 °F - 39.2 °F 76% 29.53 in 10.0 mi Calm Calm - N/A   Overcast
11:16 AM 46.4 °F - 39.2 °F 76% 29.53 in 10.0 mi Calm Calm - N/A   Overcast
11:36 AM 48.2 °F - 39.2 °F 71% 29.53 in 10.0 mi Calm Calm - N/A   Overcast
11:56 AM 46.4 °F - 39.2 °F 76% 29.53 in 10.0 mi Calm Calm - N/A   Overcast
12:16 PM 46.4 °F - 39.2 °F 76% 29.53 in 10.0 mi Calm Calm - N/A   Overcast
12:36 PM 48.2 °F - 39.2 °F 71% 29.53 in 10.0 mi Calm Calm - N/A   Overcast
12:56 PM 48.2 °F - 39.2 °F 71% 29.53 in 10.0 mi Calm Calm - N/A   Overcast
1:16 PM 48.2 °F - 41.0 °F 76% 29.53 in 10.0 mi Calm Calm - N/A   Mostly Cloudy
1:36 PM 48.2 °F - 41.0 °F 76% 29.53 in 10.0 mi Calm Calm - N/A   Overcast
1:56 PM 48.2 °F - 42.8 °F 82% 29.53 in 10.0 mi Calm Calm - N/A   Overcast
2:16 PM 48.2 °F - 42.8 °F 82% 29.53 in 10.0 mi Calm Calm - N/A   Overcast
2:36 PM 50.0 °F - 42.8 °F 76% 29.52 in 10.0 mi Calm Calm - N/A   Overcast
2:56 PM 51.8 °F - 44.6 °F 76% 29.52 in 10.0 mi Calm Calm - N/A   Overcast
3:16 PM 50.0 °F - 44.6 °F 82% 29.52 in 10.0 mi Calm Calm - N/A   Overcast
3:36 PM 51.8 °F - 44.6 °F 76% 29.52 in 10.0 mi Calm Calm - N/A   Overcast
3:56 PM 50.0 °F - 44.6 °F 82% 29.51 in 10.0 mi Calm Calm - N/A   Overcast
4:16 PM 51.8 °F - 46.4 °F 82% 29.51 in 10.0 mi Calm Calm - N/A   Overcast
4:36 PM 50.0 °F - 46.4 °F 87% 29.51 in 10.0 mi Calm Calm - N/A   Overcast
4:56 PM 51.8 °F - 44.6 °F 76% 29.50 in 10.0 mi Calm Calm - N/A   Overcast
5:16 PM 51.8 °F - 44.6 °F 76% 29.50 in 10.0 mi Calm Calm - N/A   Overcast
5:36 PM 51.8 °F - 42.8 °F 71% 29.49 in 10.0 mi East 3.5 mph - N/A   Overcast
5:56 PM 51.8 °F - 44.6 °F 76% 29.49 in 10.0 mi SE 3.5 mph - N/A   Overcast
6:16 PM 51.8 °F - 42.8 °F 71% 29.49 in 10.0 mi Calm Calm - N/A   Overcast
6:36 PM 51.8 °F - 42.8 °F 71% 29.49 in 10.0 mi Calm Calm - N/A   Overcast
6:56 PM 50.0 °F - 44.6 °F 82% 29.49 in 10.0 mi Calm Calm - N/A   Overcast
7:16 PM 50.0 °F - 42.8 °F 76% 29.49 in 10.0 mi Calm Calm - N/A   Overcast
7:36 PM 48.2 °F - 44.6 °F 87% 29.49 in 10.0 mi Calm Calm - N/A   Overcast
7:56 PM 48.2 °F - 44.6 °F 87% 29.49 in 10.0 mi Calm Calm - N/A   Overcast
8:16 PM 48.2 °F - 44.6 °F 87% 29.48 in 9.0 mi Calm Calm - N/A   Overcast
8:36 PM 46.4 °F 45.2 °F 44.6 °F 93% 29.48 in 10.0 mi WSW 3.5 mph - N/A   Overcast
8:56 PM 46.4 °F - 46.4 °F 100% 29.48 in 10.0 mi Calm Calm - N/A   Overcast
9:16 PM 46.4 °F - 46.4 °F 100% 29.48 in 10.0 mi Calm Calm - N/A   Overcast
9:36 PM 46.4 °F 44.3 °F 46.4 °F 100% 29.48 in 9.0 mi SSE 4.6 mph - N/A   Overcast
9:56 PM 46.4 °F 42.9 °F 44.6 °F 93% 29.48 in 10.0 mi SE 6.9 mph - N/A   Overcast
10:16 PM 46.4 °F 42.9 °F 42.8 °F 87% 29.47 in 10.0 mi SE 6.9 mph - N/A   Overcast
10:36 PM 46.4 °F 43.5 °F 42.8 °F 87% 29.47 in 10.0 mi SE 5.8 mph - N/A   Overcast
10:56 PM 46.4 °F 42.9 °F 41.0 °F 81% 29.47 in 10.0 mi SE 6.9 mph - N/A   Overcast
11:16 PM 44.6 °F 41.4 °F 41.0 °F 87% 29.47 in 10.0 mi ESE 5.8 mph - N/A   Overcast
11:36 PM 46.4 °F 42.9 °F 41.0 °F 81% 29.47 in 10.0 mi ESE 6.9 mph - N/A   Overcast
11:56 PM 46.4 °F 42.4 °F 41.0 °F 81% 29.47 in 10.0 mi East 8.1 mph - N/A   Overcast